This is the latest recevied weather packets stored in our database for station/object K7OWW-2. If no packets are shown the sender has not sent any weather packets the latest 10 day(s).
| Time | Temp. | Humidity | Pressure | Rain* | Wind** | Luminosity | Snow |
|---|---|---|---|---|---|---|---|
| 1788352129 | 7.22° C | 91% | 1009.9 hPa | 0 mm | - | - | - |
| 1788351529 | 7.22° C | 90% | 1010.2 hPa | 0 mm | - | - | - |
| 1788351231 | 7.22° C | 91% | 1010.3 hPa | 0 mm | - | - | - |
| 1788350929 | 7.22° C | 91% | 1010.3 hPa | 0 mm | - | - | - |
| 1788350329 | 7.22° C | 91% | 1010.5 hPa | 0 mm | - | - | - |
| 1788349729 | 7.22° C | 92% | 1010.5 hPa | 0 mm | - | - | - |
| 1788349129 | 7.22° C | 92% | 1010.5 hPa | 0 mm | - | - | - |
| 1788348529 | 7.78° C | 92% | 1010.6 hPa | 0 mm | - | - | - |
| 1788347929 | 7.78° C | 90% | 1010.6 hPa | 0 mm | - | - | - |
| 1788347329 | 7.78° C | 89% | 1010.7 hPa | 0 mm | - | - | - |
| 1788346729 | 7.78° C | 89% | 1010.7 hPa | 0 mm | - | - | - |
| 1788346129 | 7.22° C | 89% | 1010.6 hPa | 0 mm | - | - | - |
| 1788345529 | 7.22° C | 90% | 1010.5 hPa | 0 mm | - | - | - |
| 1788344929 | 6.67° C | 90% | 1010.5 hPa | 0 mm | - | - | - |
| 1788344329 | 6.67° C | 90% | 1010.8 hPa | 0 mm | - | - | - |
| 1788343729 | 6.11° C | 90% | 1010.9 hPa | 0 mm | - | - | - |
| 1788343129 | 6.11° C | 91% | 1011 hPa | 0 mm | - | - | - |
| 1788342529 | 5.56° C | 90% | 1011 hPa | 0 mm | - | - | - |
| 1788341929 | 5.56° C | 91% | 1010.9 hPa | 0 mm | - | - | - |
| 1788341329 | 5.56° C | 91% | 1011.1 hPa | 0 mm | - | - | - |
| 1788340729 | 5.56° C | 91% | 1011 hPa | 0 mm | - | - | - |
| 1788338929 | 5.56° C | 91% | 1011.1 hPa | 0 mm | - | - | - |
| 1788338329 | 5.56° C | 91% | 1011 hPa | 0 mm | - | - | - |
| 1788337729 | 5.56° C | 90% | 1011 hPa | 0 mm | - | - | - |
| 1788337129 | 5.56° C | 91% | 1011 hPa | 0 mm | - | - | - |
* Rain latest hour (hover to see other rain measurements)
** Current wind speed in m/s (hover to see current wind gust speed)